星链-31619 (STARLINK-31619 )

导读

STARLINK-31619是美国太空探索技术公司Starlink星链互联网卫星星座的一员,于美国东部时间2024年4月17日发射,旨在为全球提供高速低延迟的宽带互联网服务。星链卫星通常运行在近地轨道,该卫星入轨后将参与组网,进一步拓展星链星座的全球覆盖能力。

Basic Information
目录编号:
59531
目录名称:
STARLINK-31619
国际标识:
2024-073W
轨道中心:
EARTH
卫星名称:
星链-31619
卫星全名:
星链-31619 (STARLINK-31619 )
卫星状态:
在轨 (已飞行870 天)
发射日期:
2024-04-17 UTC
国别 :
美国 (US)
星等 :
--
Orbit Information
数据来源 国际轨道数据
星历时间: 2026-09-03T18:50:38+0800
22小时前
查看轨道信息
半长轴: 6861.194km
偏心率: 0.0001642
轨道倾角: 43.005°
近地点辐角 279.779°
升交点赤经 33.974°
平近点角 80.288°
近地点: 481.93km
远地点: 484.184km
周期: 94.267分钟
每日圈数: 15.275775
Detailed Information
固有亮度:
5
最大亮度:
1.5
卫星平台:
Starlink v2.0 mini
覆盖范围:
全球
运营商:
太空探索技术公司
运营商所在国:
美国
制造商(研发单位):
太空探索技术公司
制造商所在国:
美国
使用方式:
暂无
Satellite Introduction
星链(Starlink)计划是由太空探索技术公司(SpaceX)提出的一个巨型低轨卫星互联网星座项目,计划在2019年至2024年间在太空搭建由约1.2万颗卫星组成的“星链”网络,其中1584颗将部署在地球上空550千米处的近地轨道,并从2020年开始工作。该卫星仍在工作。
2D Orbit Map
3D Orbit Map
Orbit Altitude Analysis Chart
Orbit Inclination Analysis Chart
Orbit Comprehensive Analysis Chart
View Comprehensive Chart
Conjunction Data List
Event ID Objects TCA Miss Dist (km) Collision Risk Probability Collision Risk Index (CRI) Action
CDM_260827-195805-953105-993921
2026-08-27T
19:58:38+0000
0.483 km
远距离
5.687871E-5 中风险 0.7
CDM_260905-223505-953106-390621
2026-09-05T
22:35:11+0000
0.805 km
远距离
4.215029E-5 中风险 0.67
CDM_260827-182405-953105-993922
2026-08-27T
18:24:29+0000
0.656 km
远距离
2.265079E-5 中风险 0.62
CDM_260906-115505-953106-390621
2026-09-06T
11:55:29+0000
1.217 km
极远距离
1.027565E-5 中风险 0.55
CDM_260905-210105-953106-390621
2026-09-05T
21:01:02+0000
1.701 km
极远距离
3.446494E-6 低风险 0.46
CDM_260827-213205-953105-993921
2026-08-27T
21:32:47+0000
1.403 km
极远距离
1.829892E-6 低风险 0.4
CDM_260905-220905-319705-953121
2026-09-05T
22:09:00+0000
2.546 km
极远距离
1.380895E-6 低风险 0.38
CDM_260906-102105-953106-390621
2026-09-06T
10:21:20+0000
2.528 km
极远距离
1.353152E-6 低风险 0.38
CDM_260902-223705-211205-953121
2026-09-02T
22:37:25+0000
2.989 km
极远距离
8.333916E-7 极低风险 0.33
CDM_260827-204505-953105-993922
2026-08-27T
20:45:42+0000
2.155 km
极远距离
6.234957E-7 极低风险 0.31